Wallingford, CT

4:55 PM EST on February 08, 2016 (GMT -0500)
Meriden Markham Municipal

Weather History for KMMK - May, 2013

Change the Weather History Date:

Sunday, May 26, 2013

  Actual Average (KHVN) Record (KHVN)
Temperature  
Mean Temperature 52 °F -  
Max Temperature 61 °F 67 °F 86 °F (1981)
Min Temperature 43 °F 51 °F 41 °F (1972)
Degree Days  
Heating Degree Days 13    
Growing Degree Days 2 (Base 50)    
Moisture  
Dew Point 37 °F    
Average Humidity 59    
Maximum Humidity 93    
Minimum Humidity 38    
Precipitation  
Precipitation 0.00 in - - ()
Sea Level Pressure  
Sea Level Pressure 29.98 in    
Wind  
Wind Speed 11 mph (NW)    
Max Wind Speed 23 mph    
Max Gust Speed 38 mph    
Visibility 10 miles    
Events      
Averages and records for this station are not official NWS values.
T = Trace of Precipitation, MM = Missing Value Source: NWS Daily Summary

Daily Weather History Graph

Daily Weather History Graph

Search for Another Location

Airport or City:

Trip Planner

Search our weather history database for the weather conditions in past years. The results will help you decide how hot, cold, wet, or windy it might be!

Date:

Astronomy

May. 26, 2013 Rise Set
Actual Time 5:23 AM EDT 8:14 PM EDT
Civil Twilight 4:50 AM EDT 8:47 PM EDT
Nautical Twilight 4:09 AM EDT 9:28 PM EDT
Astronomical Twilight 3:21 AM EDT 10:16 PM EDT
Moon 9:58 PM EDT (5/26) 6:49 AM EDT (5/26)
Length of Visible Light 15h 56m
Length of Day
14h 51m
Waning Gibbous, 97% of the Moon is Illuminated
May 26
Waning Gibbous
May 31
Last Quarter
Jun 8
New
Jun 16
First Quarter
Jun 23
Full

Hourly Weather History & Observations

Time (EDT) Temp. Windchill Dew Point Humidity Pressure Visibility Wind Dir Wind Speed Gust Speed Precip Events Conditions
12:53 AM 46.0 °F 39.9 °F 37.9 °F 73% 29.86 in 10.0 mi WNW 13.8 mph 21.9 mph N/A   Overcast
1:53 AM 46.0 °F 41.0 °F 37.0 °F 71% 29.86 in 10.0 mi NW 10.4 mph - N/A   Overcast
2:53 AM 46.9 °F - 37.0 °F 68% 29.86 in 10.0 mi WNW 9.2 mph 17.3 mph N/A   Overcast
3:53 AM 46.9 °F - 37.0 °F 68% 29.86 in 10.0 mi NW 5.8 mph - N/A   Overcast
4:53 AM 45.0 °F 42.6 °F 37.9 °F 76% 29.87 in 10.0 mi WNW 4.6 mph - N/A   Scattered Clouds
5:53 AM 46.9 °F - 39.0 °F 74% 29.88 in 10.0 mi WNW 6.9 mph - N/A   Overcast
6:53 AM 48.9 °F - 37.9 °F 66% 29.91 in 10.0 mi WNW 10.4 mph 17.3 mph N/A   Mostly Cloudy
7:53 AM 51.1 °F - 37.9 °F 61% 29.91 in 10.0 mi WNW 17.3 mph 20.7 mph N/A   Mostly Cloudy
8:53 AM 51.1 °F - 37.0 °F 59% 29.93 in 10.0 mi WNW 13.8 mph 25.3 mph N/A   Overcast
9:53 AM 54.0 °F - 37.9 °F 55% 29.94 in 10.0 mi NW 11.5 mph 24.2 mph N/A   Overcast
10:53 AM 55.9 °F - 36.0 °F 47% 29.94 in 10.0 mi WNW 17.3 mph 31.1 mph N/A   Overcast
11:53 AM 57.0 °F - 35.1 °F 44% 29.95 in 10.0 mi NW 19.6 mph 29.9 mph N/A   Mostly Cloudy
12:53 PM 60.1 °F - 36.0 °F 41% 29.95 in 10.0 mi NNW 23.0 mph 32.2 mph N/A   Mostly Cloudy
1:53 PM 60.1 °F - 35.1 °F 39% 29.96 in 10.0 mi NNW 12.7 mph 28.8 mph N/A   Overcast
2:53 PM 59.0 °F - 36.0 °F 42% 29.98 in 10.0 mi NW 12.7 mph 20.7 mph N/A   Overcast
3:53 PM 60.1 °F - 37.0 °F 42% 29.99 in 10.0 mi NW 8.1 mph 26.5 mph N/A   Overcast
4:53 PM 61.0 °F - 35.1 °F 38% 30.02 in 10.0 mi NNW 23.0 mph 38.0 mph N/A   Mostly Cloudy
5:53 PM 59.0 °F - 36.0 °F 42% 30.05 in 10.0 mi NNW 15.0 mph 25.3 mph N/A   Mostly Cloudy
6:53 PM 57.9 °F - 37.0 °F 46% 30.08 in 10.0 mi NW 13.8 mph 23.0 mph N/A   Clear
7:53 PM 55.0 °F - 37.0 °F 51% 30.11 in 10.0 mi NW 10.4 mph - N/A   Clear
8:53 PM 52.0 °F - 37.9 °F 59% 30.12 in 10.0 mi NNW 3.5 mph - N/A   Clear
9:53 PM 46.0 °F - 41.0 °F 83% 30.14 in 10.0 mi Calm Calm - N/A   Clear
10:53 PM 43.0 °F - 39.9 °F 89% 30.16 in 10.0 mi Calm Calm - N/A   Clear
11:53 PM 43.0 °F - 41.0 °F 93% 30.17 in 10.0 mi Calm Calm - N/A   Clear